太空蜂星座-141星 (SPACEBEE-141)

导读

SPACEBEE-141是美国发射的一颗小型卫星,于2022年5月2日北京时间16时发射入轨。该卫星属于SpaceX批量部署的太空蜂星座,主要用于提供低功耗广域物联网服务,可支持全球范围内的物联网设备数据传输,助力偏远地区环境监测、物流跟踪等领域的万物互联应用,是美国低轨物联网星座组网进程中的一颗组网卫星。

基本信息
目录编号:
52400
目录名称:
SPACEBEE-141
国际标识:
2022-047G
轨道中心:
EARTH
卫星名称:
太空蜂星座-141星
卫星全名:
太空蜂星座-141星 (SPACEBEE-141)
卫星状态:
已陨落 最后检测时间 2024-05-01
发射日期:
2022-05-02 UTC
国别 :
美国 (US)
星等 :
--
轨道信息
数据来源 国际轨道数据
星历时间: 2024-04-30T15:05:36+0800
轨道信息已过期805天
半长轴: 6599.672km
偏心率: 0.0013889
轨道倾角: 97.360°
近地点辐角 276.021°
升交点赤经 216.502°
平近点角 83.949°
近地点: 212.37km
远地点: 230.704km
周期: 88.929分钟
每日圈数: 16.192699
详细信息
平衡模式:
三轴稳定
覆盖范围:
全球
运营商:
蜂群科技公司
运营商所在国:
美国
制造商(研发单位):
蜂群科技公司
制造商所在国:
美国
使用方式:
暂无
卫星简介
太空蜜蜂(SpaceBEE)皮卫星建立在0.25U立方体卫星平台上,是私营公司蜂群科技公司(Swarm Technologies)开发的卫星星座的一部分。该星座计划由大约150颗皮卫星组成,提供双向卫星通信和数据中继。该卫星已陨落。